This is the latest recevied weather packets stored in our database for station/object 9A7DI-13. If no packets are shown the sender has not sent any weather packets the latest 10 day(s).
| Time | Temp. | Humidity | Pressure | Rain* | Wind** | Luminosity | Snow |
|---|---|---|---|---|---|---|---|
| 1787889415 | 18.33° C | 86% | 1024.9 hPa | - | - | - | - |
| 1787888815 | 18.33° C | 87% | 1024.9 hPa | - | - | - | - |
| 1787888215 | 18.89° C | 85% | 1024.9 hPa | - | - | - | - |
| 1787887615 | 18.89° C | 84% | 1025 hPa | - | - | - | - |
| 1787887015 | 18.89° C | 88% | 1024.9 hPa | - | - | - | - |
| 1787886415 | 18.33° C | 88% | 1025 hPa | - | - | - | - |
| 1787885815 | 18.89° C | 87% | 1025 hPa | - | - | - | - |
| 1787885215 | 18.89° C | 87% | 1025.1 hPa | - | - | - | - |
| 1787884615 | 18.89° C | 86% | 1025.1 hPa | - | - | - | - |
| 1787884015 | 18.89° C | 85% | 1024.9 hPa | - | - | - | - |
| 1787883415 | 18.89° C | 87% | 1025 hPa | - | - | - | - |
| 1787882815 | 19.44° C | 85% | 1025 hPa | - | - | - | - |
| 1787882217 | 20° C | 84% | 1025 hPa | - | - | - | - |
| 1787881615 | 20° C | 84% | 1025 hPa | - | - | - | - |
| 1787881015 | 20° C | 83% | 1025 hPa | - | - | - | - |
| 1787880415 | 20° C | 84% | 1025.1 hPa | - | - | - | - |
| 1787879815 | 20.56° C | 82% | 1025.2 hPa | - | - | - | - |
| 1787879215 | 20.56° C | 81% | 1025.2 hPa | - | - | - | - |
| 1787878015 | 20° C | 85% | 1025.3 hPa | - | - | - | - |
| 1787877415 | 20.56° C | 82% | 1025.1 hPa | - | - | - | - |
| 1787876816 | 21.11° C | 81% | 1025.2 hPa | - | - | - | - |
| 1787876216 | 20.56° C | 84% | 1025.2 hPa | - | - | - | - |
| 1787875616 | 21.11° C | 80% | 1025.2 hPa | - | - | - | - |
| 1787875015 | 21.67° C | 79% | 1025.1 hPa | - | - | - | - |
| 1787874415 | 21.67° C | 80% | 1025.3 hPa | - | - | - | - |
* Rain since midnight (hover to see other rain measurements)
** Current wind speed in m/s (hover to see current wind gust speed)